Time,TemperatureF,DewpointF,PressureIn,WindDirection,WindDirectionDegrees,WindSpeedMPH,WindSpeedGustMPH,Humidity,HourlyPrecipIn,Conditions,Clouds,dailyrainin,SoftwareType,DateUTC
2013-07-01 00:01:00,66.0,62.0,-100.00,ESE,110,2.0,6.0,89,0.00,,,-99.99,,2013-07-01 04:01:00,
2013-07-01 00:11:00,65.0,62.0,-100.00,East,100,2.0,6.0,89,0.00,,,-99.99,,2013-07-01 04:11:00,
2013-07-01 00:22:00,65.0,62.0,-100.00,ENE,70,4.0,7.0,89,0.00,,,-99.99,,2013-07-01 04:22:00,
2013-07-01 00:32:00,65.0,62.0,-100.00,ENE,70,6.0,9.0,88,0.00,,,-99.99,,2013-07-01 04:32:00,
2013-07-01 00:43:00,65.0,62.0,-100.00,NE,40,2.0,6.0,87,0.00,,,-99.99,,2013-07-01 04:43:00,
2013-07-01 00:53:00,66.0,62.0,-100.00,NE,35,1.0,6.0,88,0.00,,,-99.99,,2013-07-01 04:53:00,
2013-07-01 01:02:00,66.0,62.0,-100.00,ENE,65,1.0,7.0,87,0.00,,,-99.99,,2013-07-01 05:02:00,
2013-07-01 01:11:00,65.0,62.0,-100.00,ENE,60,4.0,7.0,87,0.00,,,-99.99,,2013-07-01 05:11:00,
2013-07-01 01:22:00,65.0,62.0,-100.00,NE,35,2.0,6.0,88,0.00,,,-99.99,,2013-07-01 05:22:00,
2013-07-01 01:33:00,65.0,62.0,-100.00,ENE,75,4.0,7.0,88,0.00,,,-99.99,,2013-07-01 05:33:00,
2013-07-01 01:42:00,65.0,62.0,-100.00,NE,50,2.0,6.0,88,0.00,,,-99.99,,2013-07-01 05:42:00,
2013-07-01 01:52:00,65.0,62.0,-100.00,NE,45,2.0,6.0,89,0.00,,,-99.99,,2013-07-01 05:52:00,
2013-07-01 02:02:00,65.0,62.0,-100.00,East,85,3.0,6.0,89,0.00,,,-99.99,,2013-07-01 06:02:00,
2013-07-01 02:12:00,65.0,62.0,-100.00,NE,50,3.0,6.0,89,0.00,,,-99.99,,2013-07-01 06:12:00,
2013-07-01 02:24:00,65.0,62.0,-100.00,ENE,65,3.0,6.0,89,0.00,,,-99.99,,2013-07-01 06:24:00,
2013-07-01 02:33:00,65.0,62.0,-100.00,ENE,60,2.0,6.0,90,0.00,,,-99.99,,2013-07-01 06:33:00,
2013-07-01 02:43:00,65.0,62.0,-100.00,ENE,60,5.0,7.0,89,0.00,,,-99.99,,2013-07-01 06:43:00,
2013-07-01 02:53:00,65.0,62.0,-100.00,NE,55,3.0,9.0,90,0.00,,,-99.99,,2013-07-01 06:53:00,
2013-07-01 03:01:00,64.0,62.0,-100.00,NE,45,2.0,7.0,90,0.00,,,-99.99,,2013-07-01 07:01:00,
2013-07-01 03:11:00,64.0,62.0,-100.00,East,85,2.0,6.0,90,0.00,,,-99.99,,2013-07-01 07:11:00,
2013-07-01 03:22:00,64.0,62.0,-100.00,ENE,75,4.0,10.0,90,0.00,,,-99.99,,2013-07-01 07:22:00,
2013-07-01 03:33:00,64.0,62.0,-100.00,NE,45,4.0,7.0,90,0.00,,,-99.99,,2013-07-01 07:33:00,
2013-07-01 03:43:00,64.0,62.0,-100.00,North,0,2.0,6.0,90,0.00,,,-99.99,,2013-07-01 07:43:00,
2013-07-01 03:53:00,64.0,62.0,-100.00,NE,35,3.0,6.0,90,0.00,,,-99.99,,2013-07-01 07:53:00,
2013-07-01 04:01:00,64.0,62.0,-100.00,East,80,2.0,6.0,90,0.00,,,-99.99,,2013-07-01 08:01:00,
2013-07-01 04:11:00,64.0,62.0,-100.00,NE,40,3.0,5.0,90,0.00,,,-99.99,,2013-07-01 08:11:00,
2013-07-01 04:22:00,64.0,62.0,-100.00,NNE,15,1.0,4.0,90,0.00,,,-99.99,,2013-07-01 08:22:00,
2013-07-01 04:33:00,64.0,62.0,-100.00,NE,40,3.0,6.0,91,0.00,,,-99.99,,2013-07-01 08:33:00,
2013-07-01 04:42:00,64.0,62.0,-100.00,NE,40,2.0,5.0,91,0.00,,,-99.99,,2013-07-01 08:42:00,
2013-07-01 04:52:00,65.0,62.0,-100.00,NE,40,2.0,6.0,91,0.00,,,-99.99,,2013-07-01 08:52:00,
2013-07-01 05:02:00,64.0,62.0,-100.00,East,100,4.0,7.0,91,0.00,,,-99.99,,2013-07-01 09:02:00,
2013-07-01 05:12:00,64.0,62.0,-100.00,ESE,110,4.0,6.0,91,0.00,,,-99.99,,2013-07-01 09:12:00,
2013-07-01 05:22:00,64.0,62.0,-100.00,East,85,3.0,7.0,92,0.00,,,-99.99,,2013-07-01 09:22:00,
2013-07-01 05:34:00,64.0,62.0,-100.00,NE,45,2.0,5.0,92,0.00,,,-99.99,,2013-07-01 09:34:00,
2013-07-01 05:43:00,64.0,62.0,-100.00,NE,35,2.0,5.0,92,0.00,,,-99.99,,2013-07-01 09:43:00,
2013-07-01 05:53:00,64.0,62.0,-100.00,North,10,2.0,5.0,91,0.00,,,-99.99,,2013-07-01 09:53:00,
2013-07-01 06:03:00,64.0,62.0,-100.00,NNE,30,3.0,6.0,91,0.00,,,-99.99,,2013-07-01 10:03:00,
2013-07-01 06:11:00,64.0,62.0,-100.00,NE,50,3.0,7.0,91,0.00,,,-99.99,,2013-07-01 10:11:00,
2013-07-01 06:22:00,64.0,62.0,-100.00,ENE,60,2.0,6.0,92,0.00,,,-99.99,,2013-07-01 10:22:00,
2013-07-01 06:33:00,64.0,62.0,-100.00,ENE,70,4.0,10.0,92,0.00,,,-99.99,,2013-07-01 10:33:00,
2013-07-01 06:42:00,64.0,62.0,-100.00,West,260,1.0,6.0,92,0.00,,,-99.99,,2013-07-01 10:42:00,
2013-07-01 06:52:00,64.0,62.0,-100.00,WSW,255,0.0,1.0,92,0.00,,,-99.99,,2013-07-01 10:52:00,
2013-07-01 07:02:00,64.0,62.0,-100.00,SE,125,2.0,3.0,92,0.00,,,-99.99,,2013-07-01 11:02:00,
2013-07-01 07:11:00,64.0,62.0,-100.00,ESE,110,4.0,6.0,92,0.00,,,-99.99,,2013-07-01 11:11:00,
2013-07-01 07:22:00,64.0,62.0,-100.00,SE,130,3.0,7.0,92,1.10,,,-99.99,,2013-07-01 11:22:00,
2013-07-01 07:33:00,64.0,62.0,-100.00,SE,135,4.0,6.0,92,0.00,,,-99.99,,2013-07-01 11:33:00,
2013-07-01 07:43:00,64.0,62.0,-100.00,ENE,75,2.0,5.0,92,0.00,,,-99.99,,2013-07-01 11:43:00,
2013-07-01 07:52:00,64.0,62.0,-100.00,NE,40,2.0,4.0,92,0.00,,,-99.99,,2013-07-01 11:52:00,
2013-07-01 08:01:00,64.0,62.0,-100.00,ENE,70,3.0,6.0,92,0.55,,,-99.99,,2013-07-01 12:01:00,
2013-07-01 08:11:00,64.0,62.0,-100.00,ENE,70,3.0,6.0,92,0.00,,,-99.99,,2013-07-01 12:11:00,
2013-07-01 08:22:00,64.0,62.0,-100.00,East,95,3.0,6.0,92,0.00,,,-99.99,,2013-07-01 12:22:00,
2013-07-01 08:33:00,65.0,62.0,-100.00,East,95,3.0,4.0,92,0.00,,,-99.99,,2013-07-01 12:33:00,
2013-07-01 08:43:00,64.0,62.0,-100.00,ENE,70,2.0,3.0,92,0.00,,,-99.99,,2013-07-01 12:43:00,
2013-07-01 08:53:00,65.0,62.0,-100.00,East,80,0.0,3.0,92,0.00,,,-99.99,,2013-07-01 12:53:00,
2013-07-01 09:02:00,65.0,63.0,-100.00,SE,135,0.0,1.0,92,0.55,,,-99.99,,2013-07-01 13:02:00,
2013-07-01 09:12:00,65.0,63.0,-100.00,SE,135,1.0,1.0,92,0.00,,,-99.99,,2013-07-01 13:12:00,
2013-07-01 09:23:00,65.0,63.0,-100.00,South,180,1.0,2.0,92,0.00,,,-99.99,,2013-07-01 13:23:00,
2013-07-01 09:53:00,65.0,63.0,-100.00,ENE,60,2.0,3.0,92,0.00,,,-99.99,,2013-07-01 13:53:00,
2013-07-01 10:34:00,66.0,64.0,-100.00,ENE,65,1.0,3.0,92,0.00,,,-99.99,,2013-07-01 14:34:00,
2013-07-01 10:43:00,66.0,64.0,-100.00,ENE,75,2.0,4.0,92,0.00,,,-99.99,,2013-07-01 14:43:00,
2013-07-01 11:02:00,66.0,64.0,-100.00,ESE,105,1.0,3.0,92,0.00,,,-99.99,,2013-07-01 15:02:00,
2013-07-01 11:43:00,70.0,64.0,-100.00,ESE,110,2.0,6.0,80,0.00,,,-99.99,,2013-07-01 15:43:00,
2013-07-01 12:01:00,71.0,64.0,-100.00,East,80,1.0,4.0,80,0.00,,,-99.99,,2013-07-01 16:01:00,
2013-07-01 13:02:00,73.0,64.0,-100.00,South,190,2.0,7.0,73,0.00,,,-99.99,,2013-07-01 17:02:00,
2013-07-01 14:02:00,75.0,62.0,-100.00,SSW,195,2.0,6.0,62,0.00,,,-99.99,,2013-07-01 18:02:00,
2013-07-01 14:43:00,75.0,63.0,-100.00,SE,130,3.0,5.0,67,0.00,,,-99.99,,2013-07-01 18:43:00,
2013-07-01 15:44:00,70.0,66.0,-100.00,East,85,3.0,8.0,86,0.00,,,-99.99,,2013-07-01 19:44:00,
2013-07-01 16:02:00,71.0,66.0,-100.00,ENE,75,4.0,7.0,85,0.00,,,-99.99,,2013-07-01 20:02:00,
2013-07-01 16:11:00,71.0,66.0,-100.00,NE,40,3.0,9.0,85,0.00,,,-99.99,,2013-07-01 20:11:00,
2013-07-01 16:22:00,71.0,66.0,-100.00,ENE,60,4.0,9.0,82,0.00,,,-99.99,,2013-07-01 20:22:00,
2013-07-01 16:34:00,72.0,67.0,-100.00,East,80,3.0,9.0,83,0.00,,,-99.99,,2013-07-01 20:34:00,
2013-07-01 16:43:00,74.0,67.0,-100.00,ENE,65,4.0,9.0,78,0.00,,,-99.99,,2013-07-01 20:43:00,
2013-07-01 17:02:00,74.0,65.0,-100.00,ENE,60,5.0,7.0,75,0.00,,,-99.99,,2013-07-01 21:02:00,
2013-07-01 17:34:00,75.0,66.0,-100.00,ENE,70,3.0,7.0,71,0.00,,,-99.99,,2013-07-01 21:34:00,
2013-07-01 17:43:00,75.0,63.0,-100.00,East,90,5.0,9.0,65,0.00,,,-99.99,,2013-07-01 21:43:00,
2013-07-01 18:11:00,75.0,64.0,-100.00,ENE,75,2.0,9.0,70,0.00,,,-99.99,,2013-07-01 22:11:00,
2013-07-01 18:33:00,75.0,63.0,-100.00,ENE,75,6.0,11.0,66,0.00,,,-99.99,,2013-07-01 22:33:00,
2013-07-01 18:43:00,74.0,64.0,-100.00,ENE,75,4.0,9.0,70,0.00,,,-99.99,,2013-07-01 22:43:00,
2013-07-01 18:53:00,74.0,64.0,-100.00,East,80,6.0,10.0,71,0.00,,,-99.99,,2013-07-01 22:53:00,
2013-07-01 19:01:00,74.0,64.0,-100.00,ENE,65,5.0,9.0,71,0.00,,,-99.99,,2013-07-01 23:01:00,
2013-07-01 19:11:00,74.0,63.0,-100.00,East,85,6.0,11.0,68,0.00,,,-99.99,,2013-07-01 23:11:00,
2013-07-01 19:22:00,73.0,63.0,-100.00,East,80,4.0,9.0,70,0.00,,,-99.99,,2013-07-01 23:22:00,
2013-07-01 19:33:00,73.0,63.0,-100.00,ENE,70,5.0,7.0,69,0.00,,,-99.99,,2013-07-01 23:33:00,
2013-07-01 19:44:00,73.0,63.0,-100.00,NE,50,4.0,9.0,71,0.00,,,-99.99,,2013-07-01 23:44:00,
2013-07-01 19:53:00,73.0,63.0,-100.00,East,85,4.0,8.0,71,0.00,,,-99.99,,2013-07-01 23:53:00,
2013-07-01 20:01:00,72.0,63.0,-100.00,NE,50,6.0,11.0,72,0.00,,,-99.99,,2013-07-02 00:01:00,
2013-07-01 20:12:00,72.0,63.0,-100.00,ENE,65,6.0,9.0,73,0.00,,,-99.99,,2013-07-02 00:12:00,
2013-07-01 20:22:00,71.0,63.0,-100.00,ENE,65,5.0,9.0,74,0.00,,,-99.99,,2013-07-02 00:22:00,
2013-07-01 20:34:00,71.0,63.0,-100.00,NE,50,3.0,7.0,74,0.00,,,-99.99,,2013-07-02 00:34:00,
2013-07-01 20:43:00,71.0,63.0,-100.00,NE,55,3.0,7.0,75,0.00,,,-99.99,,2013-07-02 00:43:00,
2013-07-01 20:53:00,70.0,63.0,-100.00,ENE,70,4.0,8.0,76,0.00,,,-99.99,,2013-07-02 00:53:00,
2013-07-01 21:01:00,70.0,62.0,-100.00,ENE,70,6.0,9.0,76,0.00,,,-99.99,,2013-07-02 01:01:00,
2013-07-01 22:02:00,69.0,62.0,-100.00,ENE,60,4.0,9.0,76,0.00,,,-99.99,,2013-07-02 02:02:00,
2013-07-01 23:01:00,68.0,62.0,-100.00,ENE,75,6.0,11.0,78,0.00,,,-99.99,,2013-07-02 03:01:00,
2013-07-01 23:12:00,68.0,62.0,-100.00,ENE,70,4.0,9.0,79,0.00,,,-99.99,,2013-07-02 03:12:00,
2013-07-01 23:24:00,68.0,62.0,-100.00,ENE,70,4.0,9.0,79,0.00,,,-99.99,,2013-07-02 03:24:00,
2013-07-01 23:32:00,68.0,62.0,-100.00,NE,55,4.0,8.0,80,0.00,,,-99.99,,2013-07-02 03:32:00,
2013-07-01 23:43:00,68.0,62.0,-100.00,NE,40,4.0,7.0,80,0.00,,,-99.99,,2013-07-02 03:43:00,
2013-07-01 23:53:00,67.0,62.0,-100.00,ENE,75,6.0,7.0,81,0.00,,,-99.99,,2013-07-02 03:53:00,